This demonstration page uses our WeatherBlox Daily Observations layout. Learn more.

Left ArrowRight Arrow

34.02893, -84.19858

Hourly Observations for October 5, 2019

Temp ( °F °C ) Dew Point ( °F °C ) Humidity (%) Winds ( mph kmh ) Pressure ( in mb ) Visibility ( mi km ) Precip ( " mm )
12:53 am 00:53 Clear 74 23.3 64 17.8 71 71 N 3 6 29.96 1014 10 16 0.00 0.00
1:53 am 01:53 Partly Cloudy 74 23.3 65 18.3 74 74 NNE 6 9 29.96 1014 10 16 0.00 0.00
2:53 am 02:53 Clear 78 25.6 62 16.7 58 58 ENE 6 9 29.94 1014 10 16 0.00 0.00
3:53 am 03:53 Clear 78 25.6 60 15.6 54 54 VRB 5 7 29.94 1014 10 16 0.00 0.00
4:53 am 04:53 Clear 76 24.4 59 15 56 56 VRB 5 7 29.95 1014 10 16 0.00 0.00
5:53 am 05:53 Clear 75 23.9 58 14.4 55 55 E 9 15 29.97 1015 10 16 0.00 0.00
6:53 am 06:53 Clear 74 23.3 60 15.6 62 62 E 8 13 30.00 1016 10 16 0.00 0.00
7:53 am 07:53 Mostly Cloudy 74 23.3 63 17.2 69 69 E 8 13 30.02 1017 10 16 0.00 0.00
8:53 am 08:53 Partly Cloudy 74 23.3 64 17.8 71 71 undefined N/A 30.05 1018 10 16 0.00 0.00
9:53 am 09:53 Mostly Sunny 76 24.4 67 19.4 74 74 ENE 12 19 30.07 1018 9 14 0.00 0.00
10:25 am 10:25 Mostly Cloudy 77 25 67 19.4 71 71 E 13 20 30.09 1019 9 14 0.00 0.00
10:53 am 10:53 Mostly Cloudy 78 25.6 68 20 71 71 E 9 15 30.08 1019 10 16 0.00 0.00
11:53 am 11:53 Cloudy 74 23.3 66 18.9 76 76 E 13 20 30.11 1020 10 16 0.00 0.00
12:53 pm 12:53 Cloudy 72 22.2 64 17.8 76 76 VRB 7 11 30.11 1020 10 16 0.00 0.00
1:53 pm 13:53 Cloudy 74 23.3 63 17.2 69 69 E 10 17 30.09 1019 10 16 0.00 0.00
2:53 pm 14:53 Cloudy 74 23.3 64 17.8 71 71 ENE 7 11 30.06 1018 10 16 0.00 0.00
3:53 pm 15:53 Mostly Cloudy 75 23.9 64 17.8 69 69 VRB 7 11 30.06 1018 10 16 0.00 0.00
4:35 pm 16:35 Partly Cloudy 74 23.3 63 17.2 69 69 E 8 13 30.06 1018 10 16 0.00 0.00
4:48 pm 16:48 Mostly Cloudy 73 23 63 17 69 69 ENE 10 17 30.06 1018 10 16 0.00 0.00
4:53 pm 16:53 Mostly Cloudy 72 22.2 62 16.7 71 71 E 8 13 30.06 1018 10 16 0.00 0.00
5:53 pm 17:53 Cloudy 69 20.6 61 16.1 76 76 ENE 13 20 30.08 1019 10 16 0.00 0.00
6:53 pm 18:53 Cloudy 67 19.4 61 16.1 81 81 E 9 15 30.10 1019 10 16 0.00 0.00
7:53 pm 19:53 Cloudy 66 18.9 61 16.1 84 84 VRB 7 11 30.12 1020 10 16 0.00 0.00
8:53 pm 20:53 Cloudy 65 18.3 61 16.1 87 87 undefined N/A 30.15 1021 10 16 0.00 0.00
8:55 pm 20:55 Cloudy 65 18.3 61 16.1 87 87 E 8 13 30.16 1021 10 16 0.00 0.00
9:53 pm 21:53 Cloudy 65 18.3 61 16.1 87 87 VRB 3 6 30.15 1021 10 16 0.00 0.00
10:53 pm 22:53 Cloudy 64 17.8 61 16.1 90 90 VRB 5 7 30.15 1021 10 16 0.00 0.00
11:34 pm 23:34 Cloudy 64 17.8 60 15.6 87 87 ENE 8 13 30.17 1022 10 16 0.00 0.00
11:53 pm 23:53 Cloudy 63 17.2 59 15 87 87 VRB 7 11 30.16 1021 10 16 0.00 0.00

Powered by AerisWeather